EW2112 Weather Reports


Display with metric or nautical units.
time (UTC)temp
F
wind
direction
speed
MPH
gust
MPH
rain 1hr
in
rain 24hr
in
rain mn
in
humidity
%
barometer
mb
20260506091520 64 22 1.0 5.0 0.00 0.00 0.00 79 1012.1
20260506090023 64 57 0.0 3.0 0.00 0.00 0.00 79 1012.1
20260506084520 64 71 0.0 3.0 0.00 0.00 0.00 78 1012.1
20260506083020 65 63 1.0 4.0 0.00 0.00 0.00 77 1012.1
20260506081520 65 73 0.0 4.0 0.00 0.00 0.00 74 1012.1
20260506073019 68 57 1.0 4.0 0.00 0.00 0.00 67 1012.0
20260506071518 70 32 0.0 4.0 0.00 0.00 0.00 64 1011.9
20260506061513 74 46 1.0 5.0 0.00 0.00 0.00 51 1012.0
20260506044503 74 286 0.0 5.0 0.00 0.00 0.00 50 1012.7
20260506043003 76 278 1.0 7.0 0.00 0.00 0.00 49 1012.8
20260506041605 75 298 4.0 9.0 0.00 0.00 0.00 50 1012.9
20260506040058 76 344 3.0 7.0 0.00 0.00 0.00 50 1013.2
20260506034613 76 269 1.0 5.0 0.00 0.00 0.00 50 1013.3
20260506033053 75 38 0.0 4.0 0.00 0.00 0.00 51 1013.5
20260506031550 74 215 1.0 5.0 0.00 0.00 0.00 54 1013.8
20260506030047 74 26 0.0 8.0 0.00 0.00 0.00 53 1014.1
20260506024602 72 316 1.0 5.0 0.00 0.00 0.00 56 1014.3
20260506023041 72 306 2.0 4.0 0.00 0.00 0.00 54 1014.7
20260506021537 72 315 3.0 6.0 0.00 0.00 0.00 55 1015.0
20260506020033 71 325 1.0 6.0 0.00 0.00 0.00 55 1015.3
20260506014531 71 306 1.0 5.0 0.00 0.00 0.00 56 1015.5
20260506013038 70 262 2.0 4.0 0.00 0.00 0.00 56 1015.8
20260506011521 68 250 0.0 4.0 0.00 0.00 0.00 58 1016.2
20260506010023 67 219 1.0 4.0 0.00 0.00 0.00 60 1016.4
20260506004514 66 224 1.0 4.0 0.00 0.00 0.00 62 1016.5
20260506003012 65 225 1.0 3.0 0.00 0.00 0.00 63 1016.8
20260506001509 64 221 1.0 4.0 0.00 0.00 0.00 64 1016.9
20260506000005 63 254 2.0 4.0 0.00 0.00 0.00 66 1017.1
20260505234504 61 245 2.0 6.0 0.00 0.00 0.00 69 1017.1
20260505233057 60 261 2.0 5.0 0.00 0.00 0.00 69 1017.1
20260505231553 59 225 1.0 4.0 0.00 0.00 0.00 73 1017.2
20260505230101 57 286 1.0 4.0 0.00 0.00 0.00 77 1017.1
20260505224547 56 243 1.0 3.0 0.00 0.00 0.00 79 1017.1
20260505223053 55 284 1.0 3.0 0.00 0.00 0.00 82 1017.1
20260505221537 54 313 0.0 2.0 0.00 0.00 0.00 85 1017.3
20260505220041 52 313 0.0 3.0 0.00 0.00 0.00 88 1017.2
20260505214532 51 88 0.0 2.0 0.00 0.00 0.00 90 1017.2
20260505213048 49 124 1.0 3.0 0.00 0.00 0.00 93 1017.2
20260505211529 48 151 0.0 2.0 0.00 0.00 0.00 93 1017.1
20260505210029 48 151 0.0 0.0 0.00 0.00 0.00 92 1017.0
20260505204526 48 151 0.0 1.0 0.00 0.00 0.00 92 1017.0
20260505203039 48 151 0.0 1.0 0.00 0.00 0.00 91 1017.0
20260505201524 48 151 0.0 0.0 0.00 0.00 0.00 91 1016.9
20260505200032 48 151 0.0 0.0 0.00 0.00 0.00 90 1016.8
20260505194521 48 151 0.0 0.0 0.00 0.00 0.00 90 1016.8
20260505193022 48 151 0.0 0.0 0.00 0.00 0.00 89 1016.7
20260505191519 49 151 0.0 0.0 0.00 0.00 0.00 90 1016.7
20260505190016 49 151 0.0 0.0 0.00 0.00 0.00 89 1016.6
20260505184522 50 151 0.0 0.0 0.00 0.00 0.00 88 1016.6
20260505183014 50 151 0.0 2.0 0.00 0.00 0.00 89 1016.6
20260505181512 50 151 0.0 0.0 0.00 0.00 0.00 88 1016.6
20260505180011 50 151 0.0 0.0 0.00 0.00 0.00 87 1016.6
20260505174515 50 151 0.0 0.0 0.00 0.00 0.00 87 1016.5
20260505173027 51 151 0.0 2.0 0.00 0.00 0.00 87 1016.6
20260505171508 50 151 0.0 1.0 0.00 0.00 0.00 87 1016.7
20260505170008 50 151 0.0 2.0 0.00 0.00 0.00 87 1016.7
20260505164512 50 151 0.0 1.0 0.00 0.00 0.00 87 1016.8
20260505163011 50 151 0.0 0.0 0.00 0.00 0.00 87 1016.8
20260505161505 51 151 0.0 0.0 0.00 0.00 0.00 87 1016.8
20260505153115 51 151 0.0 0.0 0.00 0.00 0.00 85 1017.3
20260505151601 52 151 0.0 0.0 0.00 0.00 0.00 85 1017.3
20260505124547 54 151 0.0 2.0 0.00 0.00 0.00 82 1017.3
20260505123044 54 151 0.0 0.0 0.00 0.00 0.00 82 1017.3
20260505121544 55 151 0.0 0.0 0.00 0.00 0.00 81 1017.4
20260505120043 55 151 0.0 1.0 0.00 0.00 0.00 82 1017.4
20260505114545 55 151 0.0 1.0 0.00 0.00 0.00 82 1017.3
20260505113043 56 151 0.0 0.0 0.00 0.00 0.00 80 1017.4
20260505111551 56 151 0.0 0.0 0.00 0.00 0.00 80 1017.3
20260505101535 58 152 0.0 1.0 0.00 0.00 0.00 75 1016.8
20260505100042 59 152 0.0 2.0 0.00 0.00 0.00 73 1016.7
20260505094531 60 151 0.0 2.0 0.00 0.00 0.00 71 1016.4
20260505093030 61 152 0.0 0.0 0.00 0.00 0.00 68 1016.1